CW7625 Weather Reports


Display with metric or nautical units.
time (UTC)temp
F
wind
direction
speed
MPH
gust
MPH
rain 1hr
in
rain 24hr
in
rain mn
in
humidity
%
barometer
mb
20210916103940 65 163 0.0 1.0 0.00 0.00 0.00 61 1011.3
20210916102939 65 163 0.0 1.0 0.00 0.00 0.00 62 1011.3
20210916101939 65 163 0.0 1.0 0.00 0.00 0.00 61 1011.2
20210916100939 66 163 0.0 1.0 0.00 0.00 0.00 61 1011.2
20210916095940 66 163 0.0 0.0 0.00 0.00 0.00 61 1011.2
20210916094940 66 163 0.0 0.0 0.00 0.00 0.00 61 1011.3
20210916093939 66 163 0.0 0.0 0.00 0.00 0.00 62 1011.4
20210916092940 66 163 0.0 1.0 0.00 0.00 0.00 62 1011.3
20210916091940 66 163 0.0 1.0 0.00 0.00 0.00 61 1011.2
20210916090939 66 163 0.0 0.0 0.00 0.00 0.00 62 1011.2
20210916085939 66 163 0.0 0.0 0.00 0.00 0.00 61 1011.1
20210916084940 66 163 0.0 1.0 0.00 0.00 0.00 62 1011.2
20210916083940 66 163 0.0 0.0 0.00 0.00 0.00 62 1011.3
20210916082939 66 163 0.0 0.0 0.00 0.00 0.00 62 1011.4
20210916081939 66 163 0.0 0.0 0.00 0.00 0.00 63 1011.3
20210916080939 66 163 0.0 0.0 0.00 0.00 0.00 63 1011.2
20210916075940 66 163 0.0 0.0 0.00 0.00 0.00 63 1011.2
20210916074939 67 163 0.0 0.0 0.00 0.00 0.00 63 1011.3
20210916073940 67 163 0.0 0.0 0.00 0.00 0.00 63 1011.3
20210916072940 67 163 0.0 0.0 0.00 0.00 0.00 62 1011.3
20210916071940 67 163 0.0 0.0 0.00 0.00 0.00 63 1011.3
20210916070939 67 163 0.0 0.0 0.00 0.00 0.00 63 1011.3
20210916065940 67 163 0.0 0.0 0.00 0.00 0.00 63 1011.3
20210916064939 67 163 0.0 0.0 0.00 0.00 0.00 63 1011.2
20210916063940 67 163 0.0 0.0 0.00 0.00 0.00 64 1011.3
20210916062940 67 163 0.0 1.0 0.00 0.00 0.00 64 1011.4
20210916061940 68 163 0.0 0.0 0.00 0.00 0.00 64 1011.5
20210916060940 68 163 0.0 0.0 0.00 0.00 0.00 64 1011.5
20210916055940 68 163 0.0 0.0 0.00 0.00 0.00 64 1011.5
20210916054939 68 163 0.0 0.0 0.00 0.00 0.00 65 1011.5
20210916053940 68 163 0.0 0.0 0.00 0.00 0.00 65 1011.6
20210916052940 68 163 0.0 0.0 0.00 0.00 0.00 66 1011.6
20210916051940 68 163 0.0 0.0 0.00 0.00 0.00 67 1011.6
20210916050939 69 163 0.0 0.0 0.00 0.00 0.00 66 1011.7
20210916050011 69 163 0.0 0.0 0.00 0.00 0.00 66 1011.7
20210916044940 69 163 0.0 0.0 0.00 0.00 0.00 67 1011.4
20210916043941 69 163 0.0 0.0 0.00 0.00 0.00 68 1011.4
20210916042941 69 163 0.0 0.0 0.00 0.00 0.00 68 1011.4
20210916041939 70 163 0.0 0.0 0.00 0.00 0.00 69 1011.5
20210916040940 70 163 0.0 0.0 0.00 0.00 0.00 69 1011.5
20210916035940 70 163 0.0 0.0 0.00 0.00 0.00 69 1011.5
20210916034939 70 163 0.0 0.0 0.00 0.00 0.00 70 1011.5
20210916033939 70 163 0.0 0.0 0.00 0.00 0.00 72 1011.4
20210916032946 71 163 0.0 1.0 0.00 0.00 0.00 73 1011.4
20210916031939 71 163 0.0 0.0 0.00 0.00 0.00 73 1011.3
20210916030941 71 163 0.0 0.0 0.00 0.00 0.00 73 1011.3
20210916025940 72 163 0.0 0.0 0.00 0.00 0.00 74 1011.1
20210916024940 72 163 0.0 0.0 0.00 0.00 0.00 75 1011.0
20210916023940 72 163 0.0 0.0 0.00 0.00 0.00 76 1011.0
20210916022940 72 163 0.0 0.0 0.00 0.00 0.00 77 1010.9
20210916021940 72 163 0.0 1.0 0.00 0.00 0.00 77 1010.8
20210916020940 73 163 0.0 0.0 0.00 0.00 0.00 78 1010.6
20210916015940 73 163 0.0 0.0 0.00 0.00 0.00 80 1010.5
20210916014940 74 163 0.0 0.0 0.00 0.00 0.00 80 1010.4
20210916013940 74 163 0.0 0.0 0.00 0.00 0.00 81 1010.2
20210916012940 75 163 0.0 1.0 0.00 0.00 0.00 81 1010.0
20210916011940 75 163 0.0 0.0 0.00 0.00 0.00 82 1009.8
20210916010940 76 166 0.0 0.0 0.00 0.00 0.00 82 1009.7
20210916005939 76 166 0.0 0.0 0.00 0.00 0.00 80 1009.5
20210916004940 77 166 0.0 0.0 0.00 0.00 0.00 80 1009.4
20210916003940 78 166 0.0 0.0 0.00 0.00 0.00 79 1009.3
20210916002940 78 166 0.0 0.0 0.00 0.00 0.00 78 1009.2
20210916001940 79 166 0.0 0.0 0.00 0.00 0.00 76 1009.2
20210916000942 80 166 0.0 0.0 0.00 0.00 0.00 74 1009.2
20210915235942 81 166 0.0 1.0 0.00 0.00 0.00 73 1009.2
20210915234941 82 166 0.0 1.0 0.00 0.00 0.00 71 1009.1
20210915233940 83 166 0.0 1.0 0.00 0.00 0.00 70 1009.1
20210915232940 84 166 0.0 0.0 0.00 0.00 0.00 70 1009.0
20210915231940 85 166 0.0 1.0 0.00 0.00 0.00 65 1008.9
20210915230940 86 166 1.0 4.0 0.00 0.00 0.00 60 1008.9
20210915225940 86 90 0.0 3.0 0.00 0.00 0.00 58 1008.8
20210915224940 87 90 0.0 7.0 0.00 0.00 0.00 58 1008.7
20210915223940 87 107 0.0 8.0 0.00 0.00 0.00 56 1008.7
20210915222940 87 56 6.0 9.0 0.00 0.00 0.00 55 1008.6
20210915221940 87 44 3.0 9.0 0.00 0.00 0.00 54 1008.5
20210915220942 87 96 6.0 9.0 0.00 0.00 0.00 53 1008.6
20210915215940 88 65 4.0 9.0 0.00 0.00 0.00 53 1008.6
20210915214944 88 57 3.0 7.0 0.00 0.00 0.00 51 1008.6
20210915213940 88 109 2.0 8.0 0.00 0.00 0.00 53 1008.7
20210915212940 88 97 3.0 10.0 0.00 0.00 0.00 56 1008.7
20210915211942 88 44 6.0 9.0 0.00 0.00 0.00 53 1008.8
20210915210940 88 69 2.0 11.0 0.00 0.00 0.00 54 1008.8
20210915205940 88 61 9.0 11.0 0.00 0.00 0.00 52 1008.9
20210915204940 88 22 2.0 11.0 0.00 0.00 0.00 53 1009.0
20210915203939 87 55 4.0 9.0 0.00 0.00 0.00 56 1009.1
20210915202940 87 98 2.0 13.0 0.00 0.00 0.00 58 1009.1
20210915201940 88 92 7.0 14.0 0.00 0.00 0.00 52 1009.1
20210915200940 87 78 3.0 10.0 0.00 0.00 0.00 54 1009.2
20210915195940 87 82 8.0 9.0 0.00 0.00 0.00 55 1009.2
20210915194940 87 11 2.0 10.0 0.00 0.00 0.00 56 1009.4
20210915193940 86 76 8.0 10.0 0.00 0.00 0.00 56 1009.6
20210915192940 87 100 3.0 13.0 0.00 0.00 0.00 53 1009.7
20210915191940 87 34 4.0 14.0 0.00 0.00 0.00 55 1009.8
20210915190940 86 114 7.0 14.0 0.00 0.00 0.00 59 1009.8
20210915185940 86 36 5.0 10.0 0.00 0.00 0.00 60 1009.8
20210915184940 85 98 7.0 11.0 0.00 0.00 0.00 60 1010.1
20210915183940 84 61 3.0 10.0 0.00 0.00 0.00 62 1010.2
20210915182940 85 66 10.0 14.0 0.00 0.00 0.00 61 1010.5
20210915181940 84 89 5.0 13.0 0.00 0.00 0.00 63 1010.5
20210915180940 84 96 8.0 12.0 0.00 0.00 0.00 65 1010.8
20210915175940 84 67 8.0 11.0 0.00 0.00 0.00 64 1010.7
20210915174940 83 130 2.0 12.0 0.00 0.00 0.00 69 1010.8
20210915173940 83 39 7.0 12.0 0.00 0.00 0.00 66 1011.1
20210915172940 82 72 4.0 13.0 0.00 0.00 0.00 69 1011.2
20210915171940 82 96 4.0 14.0 0.00 0.00 0.00 67 1011.3
20210915170940 82 82 3.0 10.0 0.00 0.00 0.00 71 1011.5
20210915165940 81 86 3.0 12.0 0.00 0.00 0.00 69 1011.6
20210915164940 81 22 6.0 10.0 0.00 0.00 0.00 72 1011.7
20210915163940 80 42 0.0 11.0 0.00 0.00 0.00 73 1012.0
20210915162940 79 49 7.0 8.0 0.00 0.00 0.00 74 1012.1
20210915161940 78 119 3.0 9.0 0.00 0.00 0.00 73 1012.2
20210915160940 78 109 6.0 10.0 0.00 0.00 0.00 75 1012.3
20210915155940 77 53 2.0 9.0 0.00 0.00 0.00 77 1012.4
20210915154940 76 90 7.0 8.0 0.00 0.00 0.00 76 1012.6
20210915153940 75 108 2.0 6.0 0.00 0.00 0.00 79 1012.6
20210915152940 74 59 4.0 6.0 0.00 0.00 0.00 78 1012.7
20210915151940 73 73 3.0 5.0 0.00 0.00 0.00 80 1012.8
20210915150940 73 50 4.0 5.0 0.00 0.00 0.00 80 1012.9
20210915145940 73 286 1.0 4.0 0.00 0.00 0.00 80 1013.0
20210915144940 73 57 4.0 6.0 0.00 0.00 0.00 80 1013.1
20210915143940 72 52 1.0 5.0 0.00 0.00 0.00 80 1013.0
20210915142940 72 16 0.0 7.0 0.00 0.00 0.00 80 1013.0
20210915141940 72 35 2.0 5.0 0.00 0.00 0.00 80 1012.8
20210915140940 72 55 2.0 5.0 0.00 0.00 0.00 79 1012.6
20210915135940 71 74 3.0 7.0 0.00 0.00 0.00 78 1012.6
20210915134940 70 47 3.0 7.0 0.00 0.00 0.00 74 1012.6
20210915133940 68 38 4.0 6.0 0.00 0.00 0.00 66 1012.7
20210915132940 67 61 2.0 5.0 0.00 0.00 0.00 63 1012.8
20210915131940 66 43 2.0 3.0 0.00 0.00 0.00 64 1012.7
20210915130940 66 43 0.0 3.0 0.00 0.00 0.00 63 1012.7
20210915125941 66 255 1.0 2.0 0.00 0.00 0.00 62 1012.7
20210915124940 66 255 0.0 2.0 0.00 0.00 0.00 61 1012.7
20210915123940 65 255 1.0 2.0 0.00 0.00 0.00 61 1012.6
20210915122940 65 255 0.0 2.0 0.00 0.01 0.00 62 1012.5
20210915121940 65 255 0.0 2.0 0.00 0.01 0.00 62 1012.3
20210915120940 65 255 0.0 0.0 0.00 0.01 0.00 62 1012.3
20210915115940 65 255 0.0 1.0 0.00 0.01 0.00 62 1012.3
20210915114940 65 255 1.0 1.0 0.00 0.01 0.00 62 1012.2
20210915113940 65 255 0.0 0.0 0.00 0.01 0.00 62 1012.2
20210915112940 65 255 0.0 1.0 0.00 0.01 0.00 62 1012.0
20210915111940 65 255 1.0 2.0 0.00 0.01 0.00 62 1011.8
20210915110940 65 255 0.0 2.0 0.00 0.01 0.00 62 1011.8
20210915105940 65 255 1.0 2.0 0.00 0.01 0.00 62 1011.6
20210915104940 65 255 0.0 2.0 0.00 0.01 0.00 62 1011.5